Home   Weather   Winamac   Past weeks

Flag for USA Past Weather in Winamac, Indiana, USA — Yesterday and Last 2 Weeks

Now
57 °F

Sunny.


Feels Like: 54 °F
Forecast: 48 / 60 °F
Wind: 13 mph from South

Location: Porter County Municipal Airport

Current Time: Jan 21, 2017 at 1:04:08 pm

Latest Report: Jan 21, 2017 at 11:56 am


Visibility: 9 mi

Pressure: 29.56 "Hg

Humidity: 81%

Dew Point: 51 °F

Location of WinamacLocation

Past Weather in Winamac — Graph

°F

Winamac Temperature Yesterday

Maximum temperature yesterday: 47 °F (at 8:07 pm)
Minimum temperature yesterday: 38 °F (at 8:08 am)
Average temperature yesterday: 42 °F

High & Low Weather Summary for the Past Weeks

 TemperatureHumidityPressure
High57 °F (Jan 11, 8:18 pm)100% (Jan 11, 2:56 pm)30.77 "Hg (Jan 11, 2:56 pm)
Low2 °F (Jan 7, 1:56 am)41% (Jan 8, 2:56 pm)29.32 "Hg (Jan 10, 4:11 pm)
Average32 °F85%30.11 "Hg
* Reported Jan 6 11:56 am — Jan 21 11:56 am, Winamac, Weather by CustomWeather, © 2017

Note: Actual official high and low records may vary slightly from our data, if they occured in-between our weather recording intervals... More about our weather records

Advertising

Winamac Weather History for the Previous 24 Hours

Scroll right to see more
 ConditionsComfort  
Time TempWeatherWind HumidityBarometerVisibility
11:56 am
Sat, Jan 21
57 °FSunny.13 mph81%29.56 "Hg9 mi
10:56 am52 °FFog.10 mph97%29.58 "Hg4 mi
10:44 am51 °FFog.8 mph100%29.58 "Hg2 mi
10:23 am50 °FFog.9 mph100%29.58 "Hg1 mi
9:56 am50 °FFog.12 mph100%29.58 "Hg1 mi
9:17 am49 °FFog.9 mph100%29.58 "Hg0 mi
8:56 am50 °FFog.8 mph96%29.58 "Hg1 mi
8:44 am50 °FFog.9 mph96%29.57 "Hg2 mi
8:06 am50 °FFog.9 mph96%29.59 "Hg3 mi
7:56 am50 °FFog.8 mph96%29.59 "Hg3 mi
7:28 am49 °FFog.9 mph97%29.58 "Hg3 mi
6:56 am49 °FFog.9 mph97%29.59 "Hg3 mi
6:40 am49 °FFog.9 mph97%29.58 "Hg3 mi
6:28 am49 °FFog.8 mph97%29.59 "Hg3 mi
5:56 am50 °FFog.8 mph96%29.60 "Hg4 mi
5:20 am49 °FFog.7 mph97%29.59 "Hg4 mi
4:56 am49 °FFog.8 mph97%29.60 "Hg4 mi
3:56 am48 °FFog.5 mph96%29.64 "Hg3 mi
2:56 am49 °FFog.6 mph97%29.63 "Hg5 mi
2:04 am49 °FFog.6 mph97%29.63 "Hg5 mi
1:56 am49 °FFog.7 mph97%29.64 "Hg5 mi
12:56 am48 °FFog.8 mph96%29.65 "Hg5 mi
12:22 am47 °FFog.6 mph97%29.65 "Hg3 mi
12:03 am46 °FFog.5 mph100%29.66 "Hg2 mi
11:56 pm
Fri, Jan 20
46 °FFog.6 mph100%29.67 "Hg2 mi
11:16 pm46 °FFog.6 mph100%29.66 "Hg2 mi
11:06 pm47 °FFog.5 mph100%29.67 "Hg4 mi
10:56 pm47 °FLight rain. Fog.7 mph100%29.67 "Hg3 mi
9:56 pm47 °FFog.6 mph100%29.69 "Hg3 mi
8:56 pm47 °FFog.6 mph100%29.69 "Hg3 mi
8:28 pm47 °FFog.5 mph100%29.67 "Hg3 mi
8:07 pm47 °FFog.6 mph97%29.67 "Hg2 mi
6:56 pm46 °FFog.8 mph100%29.70 "Hg4 mi
6:35 pm46 °FFog.6 mph100%29.68 "Hg4 mi
6:08 pm46 °FFog.6 mph100%29.67 "Hg4 mi
5:56 pm46 °FFog.6 mph100%29.68 "Hg2 mi
5:19 pm46 °FFog.5 mph100%29.66 "Hg1 mi
4:56 pm46 °FFog.5 mph96%29.65 "Hg1 mi
3:56 pm45 °FFog.6 mph100%29.66 "Hg2 mi
3:20 pm45 °FFog.No wind100%29.63 "Hg1 mi
3:04 pm44 °FFog.3 mph100%29.63 "Hg1 mi
2:56 pm44 °FFog.5 mph100%29.64 "Hg1 mi
2:26 pm43 °FFog.5 mph100%29.64 "Hg1 mi
1:56 pm43 °FFog.6 mph100%29.65 "Hg1 mi
Weather by CustomWeather, © 2017

See weather overviewHow to use our weather pages